Location: Newark
(67.0000°N, 26.0000°E)
Time: 01:26:40
(UTC+00:00)

N. Korean satellite - Visible Passes

Search period start: 18 October 2019 00:00
Search period end: 28 October 2019 00:00
Orbit: 455 x 508 km, 97.2° (Epoch: 16 October)

Date Brightness Start Highest point End Pass type
(mag) Time Alt. Az. Time Alt. Az. Time Alt. Az.
18 Oct 8.5 04:00:04 10° NNE 04:03:22 35° E 04:06:42 10° SSE visible
18 Oct 9.9 16:23:09 10° SW 16:25:33 17° W 16:27:59 10° NW visible
19 Oct 9.3 03:34:54 10° NE 03:37:52 24° E 03:40:52 10° SSE visible
19 Oct 9.2 15:57:03 10° SSW 16:00:00 25° W 16:02:58 10° NW visible
20 Oct 9.9 03:09:54 10° NE 03:12:18 17° E 03:14:43 10° SE visible
20 Oct 8.3 15:31:15 10° SSW 15:34:30 37° W 15:37:49 10° NNW visible
21 Oct 10.3 02:45:20 10° ENE 02:46:41 12° E 02:48:01 10° ESE visible
21 Oct 7.9 04:17:28 10° NNE 04:20:57 46° E 04:24:28 10° S visible
21 Oct 10.1 16:41:24 10° WSW 16:43:15 14° W 16:45:07 10° NW visible
22 Oct 8.8 03:52:14 10° NNE 03:55:29 31° E 03:58:47 10° SSE visible
22 Oct 9.6 16:15:01 10° SW 16:17:38 20° W 16:20:17 10° NW visible
23 Oct 9.5 03:27:06 10° NE 03:29:58 22° E 03:32:52 10° SE visible
23 Oct 8.9 15:49:00 10° SSW 15:52:05 29° W 15:55:13 10° NNW visible
24 Oct 10.1 03:02:10 10° NE 03:04:23 15° E 03:06:36 10° ESE visible
24 Oct 7.2 04:34:53 10° NNE 04:38:29 63° ESE 04:42:08 10° S visible
24 Oct 8.0 15:23:15 10° S 15:26:36 43° W 15:30:01 10° NNW visible
24 Oct 10.4 17:00:12 10° W 17:00:58 11° WNW 17:01:44 10° WNW visible
25 Oct 10.5 02:37:54 10° ENE 02:38:43 11° ENE 02:39:32 10° E visible
25 Oct 8.1 04:09:36 10° NNE 04:13:04 41° E 04:16:34 10° S visible
25 Oct 10.0 16:33:07 10° WSW 16:35:17 15° W 16:37:29 10° NW visible
26 Oct 9.0 03:44:23 10° NNE 03:47:35 28° E 03:50:49 10° SSE visible
26 Oct 9.4 16:06:51 10° SW 16:09:41 22° W 16:12:33 10° NW visible
27 Oct 9.6 03:19:17 10° NE 03:22:02 20° E 03:24:48 10° SE visible
27 Oct 6.7 04:52:19 10° NNE 04:55:58 84° ESE 04:59:40 10° SSW visible
27 Oct 8.6 15:40:56 10° SSW 15:44:08 32° W 15:47:25 10° NNW visible
